Location: Copeville
(33.0796°N, 96.4155°W)
Time: 17:53:11
(UTC+00:00)

SKYMED 2 - Visible Passes

Search period start: 28 June 2022 00:00
Search period end: 08 July 2022 00:00
Orbit: 621 x 623 km, 97.9° (Epoch: 28 June)

Date Brightness Start Highest point End Pass type
(mag) Time Alt. Az. Time Alt. Az. Time Alt. Az.
28 Jun 6.9 10:41:05 10° E 10:43:26 14° ENE 10:45:47 10° NE visible
03 Jul 7.1 10:35:40 10° E 10:37:26 12° ENE 10:39:12 10° NE visible
04 Jul 6.6 10:52:09 10° ESE 10:55:16 20° ENE 10:58:23 10° NNE visible
